Weather History for K4O4 - April, 2014

Change the Weather History Date:

Monday, April 21, 2014

  Actual Average (KDEQ) Record (KDEQ)
Temperature  
Mean Temperature 67 °F 63 °F  
Max Temperature 75 °F 75 °F 94 °F (1987)
Min Temperature 59 °F 50 °F 33 °F (1953)
Degree Days  
Heating Degree Days 0 4  
Month to date heating degree days 129  
Since 1 July heating degree days 2997  
Cooling Degree Days 2 1  
Month to date cooling degree days 21  
Year to date cooling degree days 32  
Growing Degree Days 17 (Base 50)    
Moisture  
Dew Point 61 °F    
Average Humidity 86    
Maximum Humidity 100    
Minimum Humidity 65    
Precipitation  
Precipitation 0.00 in 0.13 in 1.92 in (1957)
Month to date precipitation 2.45  
Year to date precipitation 14.09  
Snow  
Snow 0.00 in - - ()
Month to date snowfall  
Since 1 July snowfall  
Snow Depth -    
Sea Level Pressure  
Sea Level Pressure 30.00 in    
Wind  
Wind Speed 5 mph (SSE)    
Max Wind Speed 13 mph    
Max Gust Speed 16 mph    
Visibility 8 miles    
Events      
T = Trace of Precipitation, MM = Missing Value Source: NWS Daily Summary

Daily Weather History Graph

Daily Weather History Graph

Search for Another Location

Airport or City:

Trip Planner

Search our weather history database for the weather conditions in past years. The results will help you decide how hot, cold, wet, or windy it might be!

Date:

Astronomy

Apr. 21, 2014 Rise Set
Actual Time 6:41 AM CDT 7:55 PM CDT
Civil Twilight 6:15 AM CDT 8:21 PM CDT
Nautical Twilight 5:44 AM CDT 8:52 PM CDT
Astronomical Twilight 5:12 AM CDT 9:24 PM CDT
Moon 1:22 AM CDT (4/21) 12:12 PM CDT (4/21)
Length of Visible Light 14h 06m
Length of Day
13h 14m
Waning Gibbous, 57% of the Moon is Illuminated
Apr 21
Waning Gibbous
Apr 22
Last Quarter
Apr 29
New
May 6
First Quarter
May 14
Full

Hourly Weather History & Observations

Time (CDT) Temp. Dew Point Humidity Pressure Visibility Wind Dir Wind Speed Gust Speed Precip Events Conditions
12:01 AM 62.6 °F 60.8 °F 94% 30.07 in 7.0 mi SSE 3.5 mph - N/A   Scattered Clouds
12:21 AM 62.6 °F 60.8 °F 94% 30.08 in 4.0 mi SSW 4.6 mph - 0.01 in   Mostly Cloudy
12:41 AM 62.6 °F 60.8 °F 94% 30.08 in 4.0 mi Calm Calm - 0.01 in   Overcast
1:01 AM 62.6 °F 60.8 °F 94% 30.07 in 4.0 mi Calm Calm - N/A   Scattered Clouds
1:21 AM 62.6 °F 60.8 °F 94% 30.08 in 3.0 mi SW 3.5 mph - N/A   Unknown
1:41 AM 62.6 °F 60.8 °F 94% 30.07 in 4.0 mi South 6.9 mph - N/A   Clear
2:01 AM 62.6 °F 60.8 °F 94% 30.04 in 7.0 mi SSE 11.5 mph - N/A   Clear
2:21 AM 62.6 °F 60.8 °F 94% 30.05 in 7.0 mi SSW 9.2 mph - N/A   Mostly Cloudy
2:41 AM 62.6 °F 60.8 °F 94% 30.06 in 7.0 mi WSW 6.9 mph - N/A   Scattered Clouds
3:01 AM 62.6 °F 60.8 °F 94% 30.04 in 7.0 mi SSW 4.6 mph - N/A   Clear
3:21 AM 60.8 °F 59.0 °F 94% 30.02 in 7.0 mi South 6.9 mph - N/A   Clear
3:41 AM 62.6 °F 60.8 °F 94% 30.00 in 10.0 mi SSE 11.5 mph - N/A   Clear
4:01 AM 62.6 °F 60.8 °F 94% 29.99 in 10.0 mi South 11.5 mph - N/A   Clear
4:21 AM 62.6 °F 59.0 °F 88% 30.01 in 10.0 mi South 9.2 mph - N/A   Clear
4:41 AM 62.6 °F 59.0 °F 88% 30.02 in 10.0 mi SW 4.6 mph - N/A   Scattered Clouds
5:01 AM 60.8 °F 59.0 °F 94% 30.02 in 10.0 mi Calm Calm - N/A   Clear
5:21 AM 60.8 °F 57.2 °F 88% 30.02 in 7.0 mi North 4.6 mph - N/A   Clear
5:41 AM 60.8 °F 57.2 °F 88% 30.02 in 7.0 mi North 3.5 mph - N/A   Clear
6:01 AM 59.0 °F 57.2 °F 94% 30.02 in 5.0 mi NE 3.5 mph - N/A   Clear
6:21 AM 59.0 °F 57.2 °F 94% 30.02 in 5.0 mi Calm Calm - N/A   Scattered Clouds
6:41 AM 59.0 °F 57.2 °F 94% 30.02 in 5.0 mi East 3.5 mph - N/A   Scattered Clouds
7:01 AM 60.8 °F 57.2 °F 88% 30.02 in 5.0 mi Calm Calm - N/A   Scattered Clouds
7:21 AM 60.8 °F 57.2 °F 88% 30.04 in 4.0 mi North 3.5 mph - N/A   Scattered Clouds
7:41 AM 60.8 °F 59.0 °F 94% 30.04 in 4.0 mi Calm Calm - N/A   Mostly Cloudy
8:01 AM 60.8 °F 59.0 °F 94% 30.05 in 5.0 mi Calm Calm - N/A   Mostly Cloudy
8:21 AM 60.8 °F 60.8 °F 100% 30.05 in 5.0 mi Calm Calm - N/A   Mostly Cloudy
8:41 AM 62.6 °F 60.8 °F 94% 30.05 in 5.0 mi East 3.5 mph - N/A   Scattered Clouds
9:01 AM 62.6 °F 60.8 °F 94% 30.04 in 7.0 mi East 5.8 mph - N/A   Scattered Clouds
9:21 AM 62.6 °F 62.6 °F 100% 30.04 in 7.0 mi East 4.6 mph - N/A   Scattered Clouds
9:41 AM 64.4 °F 62.6 °F 94% 30.04 in 10.0 mi ESE 4.6 mph - N/A   Scattered Clouds
10:01 AM 66.2 °F 62.6 °F 88% 30.03 in 10.0 mi SE 6.9 mph - N/A   Scattered Clouds
10:21 AM 66.2 °F 62.6 °F 88% 30.03 in 10.0 mi SE 6.9 mph - N/A   Scattered Clouds
10:41 AM 69.8 °F 62.6 °F 78% 30.03 in 10.0 mi South 9.2 mph - N/A   Clear
11:01 AM 69.8 °F 60.8 °F 73% 30.03 in 10.0 mi South 10.4 mph - N/A   Scattered Clouds
11:21 AM 69.8 °F 60.8 °F 73% 30.03 in 10.0 mi South 9.2 mph - N/A   Scattered Clouds
11:41 AM 69.8 °F 60.8 °F 73% 30.03 in 10.0 mi South 6.9 mph - N/A   Mostly Cloudy
12:01 PM 69.8 °F 60.8 °F 73% 30.02 in 10.0 mi South 8.1 mph - N/A   Mostly Cloudy
12:21 PM 69.8 °F 60.8 °F 73% 30.02 in 10.0 mi South 8.1 mph - N/A   Scattered Clouds
12:41 PM 71.6 °F 62.6 °F 73% 30.01 in 10.0 mi South 11.5 mph - N/A   Scattered Clouds
1:01 PM 71.6 °F 60.8 °F 69% 30.00 in 10.0 mi South 9.2 mph - N/A   Scattered Clouds
1:21 PM 71.6 °F 60.8 °F 69% 29.99 in 10.0 mi SSW 10.4 mph - N/A   Scattered Clouds
1:41 PM 71.6 °F 62.6 °F 73% 29.99 in 10.0 mi SSW 8.1 mph - N/A   Scattered Clouds
2:01 PM 73.4 °F 62.6 °F 69% 29.99 in 10.0 mi South 9.2 mph 16.1 mph N/A   Scattered Clouds
2:21 PM 71.6 °F 62.6 °F 73% 29.99 in 10.0 mi SSW 6.9 mph - N/A   Mostly Cloudy
2:41 PM 71.6 °F 62.6 °F 73% 29.98 in 10.0 mi SSW 5.8 mph - N/A   Mostly Cloudy
3:01 PM 71.6 °F 62.6 °F 73% 29.98 in 10.0 mi SSW 6.9 mph - N/A   Overcast
3:21 PM 71.6 °F 62.6 °F 73% 29.97 in 10.0 mi SW 5.8 mph - N/A   Overcast
3:41 PM 71.6 °F 64.4 °F 78% 29.96 in 7.0 mi Calm Calm - N/A   Mostly Cloudy
4:01 PM 75.2 °F 62.6 °F 65% 29.94 in 10.0 mi SSW 6.9 mph - N/A   Mostly Cloudy
4:21 PM 73.4 °F 64.4 °F 73% 29.93 in 10.0 mi NNE 6.9 mph - N/A   Mostly Cloudy
4:41 PM 73.4 °F 64.4 °F 73% 29.93 in 10.0 mi NE 4.6 mph - N/A   Mostly Cloudy
5:01 PM 71.6 °F 64.4 °F 78% 29.92 in 10.0 mi ENE 9.2 mph - N/A   Mostly Cloudy
5:21 PM 69.8 °F 62.6 °F 78% 29.93 in 10.0 mi North 9.2 mph - N/A   Overcast
5:41 PM 66.2 °F 62.6 °F 88% 29.93 in 10.0 mi North 6.9 mph - N/A   Mostly Cloudy
6:01 PM 66.2 °F 62.6 °F 88% 29.94 in 10.0 mi NNE 10.4 mph - N/A   Overcast
6:21 PM 64.4 °F 62.6 °F 94% 29.93 in 10.0 mi NE 9.2 mph - N/A   Mostly Cloudy
6:41 PM 66.2 °F 62.6 °F 88% 29.92 in 10.0 mi NNE 12.7 mph - N/A   Scattered Clouds
7:01 PM 66.2 °F 60.8 °F 83% 29.93 in 10.0 mi NNE 9.2 mph - N/A   Scattered Clouds
7:21 PM 66.2 °F 60.8 °F 83% 29.94 in 10.0 mi NE 4.6 mph - N/A   Mostly Cloudy
7:41 PM 66.2 °F 60.8 °F 83% 29.94 in 10.0 mi NNE 3.5 mph - N/A   Scattered Clouds
8:01 PM 64.4 °F 60.8 °F 88% 29.95 in 10.0 mi Calm Calm - N/A   Mostly Cloudy
8:21 PM 64.4 °F 60.8 °F 88% 29.97 in 10.0 mi North 3.5 mph - N/A   Overcast
8:41 PM 64.4 °F 59.0 °F 83% 29.97 in 10.0 mi North 3.5 mph - N/A   Mostly Cloudy
9:01 PM 62.6 °F 59.0 °F 88% 29.99 in 10.0 mi NNW 5.8 mph - N/A   Overcast
9:21 PM 62.6 °F 59.0 °F 88% 29.99 in 10.0 mi North 4.6 mph - N/A   Overcast
9:41 PM 62.6 °F 59.0 °F 88% 30.00 in 10.0 mi Calm Calm - N/A   Mostly Cloudy
10:01 PM 62.6 °F 59.0 °F 88% 30.01 in 10.0 mi NNW 4.6 mph - N/A   Mostly Cloudy
10:21 PM 62.6 °F 59.0 °F 88% 30.01 in 10.0 mi NW 3.5 mph - N/A   Scattered Clouds
10:41 PM 60.8 °F 59.0 °F 94% 30.00 in 10.0 mi NNW 4.6 mph - N/A   Clear
11:01 PM 60.8 °F 57.2 °F 88% 30.00 in 10.0 mi NW 3.5 mph - N/A   Clear
11:21 PM 60.8 °F 57.2 °F 88% 29.99 in 10.0 mi Calm Calm - N/A   Clear
11:41 PM 59.0 °F 57.2 °F 94% 29.99 in 10.0 mi NW 4.6 mph - N/A   Clear